This is the latest recevied weather packets stored in our database for station/object KB0BS-13. If no packets are shown the sender has not sent any weather packets the latest 10 day(s).
| Time | Temp. | Humidity | Pressure | Rain* | Wind** | Luminosity | Snow |
|---|---|---|---|---|---|---|---|
| 1777940367 | 8.89° C | 80% | 997.5 hPa | 0 mm | - | 5 W/m² | - |
| 1777940065 | 8.89° C | 79% | 997.4 hPa | 0 mm | - | 6 W/m² | - |
| 1777939762 | 8.89° C | 85% | 997.2 hPa | 0 mm | - | 6 W/m² | - |
| 1777939460 | 8.89° C | 86% | 997.3 hPa | 0 mm | - | 7 W/m² | - |
| 1777939156 | 8.89° C | 86% | 997.3 hPa | 0 mm | - | 8 W/m² | - |
| 1777938854 | 8.89° C | 87% | 997.3 hPa | 0 mm | - | 7 W/m² | - |
| 1777938549 | 8.89° C | 87% | 997.3 hPa | 0 mm | - | 11 W/m² | - |
| 1777938247 | 8.89° C | 87% | 997.1 hPa | 0 mm | - | 18 W/m² | - |
| 1777937943 | 8.89° C | 89% | 997.2 hPa | 0 mm | - | 15 W/m² | - |
| 1777937639 | 8.89° C | 89% | 997.1 hPa | 0 mm | - | 20 W/m² | - |
| 1777937336 | 8.89° C | 88% | 996.9 hPa | 0 mm | - | 36 W/m² | - |
| 1777937033 | 8.89° C | 87% | 996.6 hPa | 0 mm | - | 43 W/m² | - |
| 1777936730 | 8.89° C | 87% | 996.7 hPa | 0 mm | - | 67 W/m² | - |
| 1777936427 | 8.89° C | 88% | 996.8 hPa | 0 mm | - | 86 W/m² | - |
| 1777936123 | 8.89° C | 87% | 996.6 hPa | 0 mm | - | 74 W/m² | - |
| 1777935820 | 8.89° C | 87% | 996.7 hPa | 0 mm | - | 85 W/m² | - |
| 1777935519 | 8.89° C | 89% | 996.4 hPa | 0 mm | - | 83 W/m² | - |
| 1777935215 | 8.89° C | 88% | 996.3 hPa | 0 mm | - | 103 W/m² | - |
| 1777934913 | 8.89° C | 88% | 996.1 hPa | 0 mm | - | 95 W/m² | - |
| 1777934609 | 8.89° C | 89% | 996.1 hPa | 1.78 mm | - | 94 W/m² | - |
| 1777934306 | 8.89° C | 90% | 996.2 hPa | 1.78 mm | - | 86 W/m² | - |
| 1777934002 | 8.89° C | 90% | 996 hPa | 0 mm | - | 59 W/m² | - |
| 1777933698 | 8.89° C | 89% | 996 hPa | 0 mm | - | 35 W/m² | - |
| 1777933395 | 8.89° C | 88% | 996.2 hPa | 0 mm | - | 28 W/m² | - |
| 1777933094 | 8.89° C | 87% | 996.2 hPa | 0 mm | - | 28 W/m² | - |
* Rain latest hour (hover to see other rain measurements)
** Current wind speed in m/s (hover to see current wind gust speed)